| time (UTC) | temp C | wind direction | speed KPH | gust KPH | rain 1hr cm | rain 24hr cm | rain mn cm | humidity % | barometer mb |
| 20260503210004 | 19 | 71 | 1.6 | 6.4 | 0.00 | 0.00 | 0.00 | 88 | 1015.6 |
| 20260503205503 | 19 | 75 | 0.0 | 6.4 | 0.00 | 0.00 | 0.00 | 88 | 1015.6 |
| 20260503205003 | 19 | 76 | 0.0 | 6.4 | 0.00 | 0.00 | 0.00 | 88 | 1015.6 |
| 20260503204503 | 19 | 40 | 1.6 | 8.0 | 0.00 | 0.00 | 0.00 | 88 | 1015.5 |
| 20260503204004 | 19 | 27 | 1.6 | 8.0 | 0.00 | 0.00 | 0.00 | 88 | 1015.4 |
| 20260503203503 | 19 | 30 | 1.6 | 8.0 | 0.00 | 0.00 | 0.00 | 88 | 1015.4 |
| 20260503203003 | 19 | 35 | 1.6 | 8.0 | 0.00 | 0.00 | 0.00 | 88 | 1015.3 |
| 20260503202503 | 19 | 49 | 0.0 | 8.0 | 0.00 | 0.00 | 0.00 | 88 | 1015.3 |
| 20260503202003 | 19 | 96 | 0.0 | 4.8 | 0.00 | 0.00 | 0.00 | 88 | 1015.3 |
| 20260503201503 | 19 | 43 | 1.6 | 9.7 | 0.00 | 0.00 | 0.00 | 88 | 1015.2 |
| 20260503201003 | 19 | 32 | 1.6 | 9.7 | 0.00 | 0.00 | 0.00 | 88 | 1015.2 |
| 20260503200525 | 19 | 59 | 1.6 | 9.7 | 0.00 | 0.00 | 0.00 | 88 | 1015.1 |
| 20260503200004 | 19 | 81 | 1.6 | 9.7 | 0.00 | 0.00 | 0.00 | 88 | 1014.8 |
| 20260503195503 | 19 | 64 | 1.6 | 8.0 | 0.00 | 0.00 | 0.00 | 87 | 1014.7 |
| 20260503195024 | 19 | 44 | 1.6 | 8.0 | 0.00 | 0.00 | 0.00 | 88 | 1014.4 |
| 20260503194503 | 19 | 37 | 3.2 | 11.3 | 0.00 | 0.00 | 0.00 | 87 | 1014.3 |
| 20260503194003 | 19 | 44 | 3.2 | 11.3 | 0.00 | 0.00 | 0.00 | 87 | 1014.2 |
| 20260503193503 | 20 | 49 | 1.6 | 9.7 | 0.00 | 0.00 | 0.00 | 88 | 1014.2 |
| 20260503193024 | 20 | 40 | 1.6 | 11.3 | 0.00 | 0.00 | 0.00 | 88 | 1014.1 |
| 20260503192525 | 20 | 73 | 1.6 | 11.3 | 0.00 | 0.00 | 0.00 | 88 | 1014.1 |
| 20260503192003 | 20 | 95 | 1.6 | 8.0 | 0.00 | 0.00 | 0.00 | 87 | 1014.1 |
| 20260503191503 | 20 | 84 | 1.6 | 6.4 | 0.00 | 0.00 | 0.00 | 88 | 1013.9 |
| 20260503191003 | 20 | 79 | 1.6 | 8.0 | 0.00 | 0.00 | 0.00 | 88 | 1013.8 |
| 20260503190503 | 20 | 80 | 1.6 | 8.0 | 0.00 | 0.00 | 0.00 | 87 | 1013.8 |
| 20260503190004 | 20 | 92 | 1.6 | 12.9 | 0.00 | 0.00 | 0.00 | 87 | 1013.7 |
| 20260503185503 | 20 | 112 | 3.2 | 16.1 | 0.00 | 0.00 | 0.00 | 87 | 1013.6 |
| 20260503185003 | 20 | 95 | 3.2 | 16.1 | 0.00 | 0.00 | 0.00 | 87 | 1013.5 |
| 20260503184504 | 20 | 69 | 3.2 | 11.3 | 0.00 | 0.00 | 0.00 | 87 | 1013.4 |
| 20260503184004 | 21 | 106 | 3.2 | 9.7 | 0.00 | 0.00 | 0.00 | 87 | 1013.4 |
| 20260503183503 | 21 | 121 | 3.2 | 11.3 | 0.00 | 0.00 | 0.00 | 87 | 1013.2 |
| 20260503183003 | 21 | 111 | 3.2 | 11.3 | 0.00 | 0.00 | 0.00 | 85 | 1013.1 |
| 20260503182503 | 21 | 106 | 3.2 | 12.9 | 0.00 | 0.00 | 0.00 | 85 | 1013.0 |
| 20260503182003 | 21 | 93 | 6.4 | 17.7 | 0.00 | 0.00 | 0.00 | 85 | 1012.9 |
| 20260503181504 | 22 | 69 | 6.4 | 17.7 | 0.00 | 0.00 | 0.00 | 83 | 1012.9 |
| 20260503181004 | 22 | 48 | 4.8 | 14.5 | 0.00 | 0.00 | 0.00 | 80 | 1012.8 |
| 20260503180524 | 22 | 71 | 3.2 | 14.5 | 0.00 | 0.00 | 0.00 | 77 | 1012.6 |
| 20260503180003 | 23 | 104 | 3.2 | 12.9 | 0.00 | 0.00 | 0.00 | 77 | 1012.6 |
| 20260503175503 | 23 | 112 | 4.8 | 12.9 | 0.00 | 0.00 | 0.00 | 75 | 1012.6 |
| 20260503175024 | 23 | 127 | 6.4 | 27.4 | 0.00 | 0.00 | 0.00 | 72 | 1012.4 |
| 20260503174524 | 23 | 129 | 8.0 | 27.4 | 0.00 | 0.00 | 0.00 | 72 | 1012.4 |
| 20260503174003 | 23 | 130 | 6.4 | 19.3 | 0.00 | 0.00 | 0.00 | 71 | 1012.3 |
| 20260503173503 | 23 | 135 | 9.7 | 22.5 | 0.00 | 0.00 | 0.00 | 71 | 1012.2 |
| 20260503173003 | 23 | 134 | 9.7 | 22.5 | 0.00 | 0.00 | 0.00 | 69 | 1012.2 |
| 20260503172504 | 23 | 133 | 9.7 | 22.5 | 0.00 | 0.00 | 0.00 | 69 | 1012.0 |
| 20260503172004 | 23 | 134 | 8.0 | 20.9 | 0.00 | 0.00 | 0.00 | 69 | 1012.0 |
| 20260503171503 | 24 | 134 | 9.7 | 19.3 | 0.00 | 0.00 | 0.00 | 69 | 1012.0 |
| 20260503171003 | 24 | 133 | 11.3 | 20.9 | 0.00 | 0.00 | 0.00 | 69 | 1012.1 |
| 20260503170504 | 24 | 132 | 11.3 | 20.9 | 0.00 | 0.00 | 0.00 | 69 | 1012.0 |
| 20260503151004 | 25 | 127 | 12.9 | 27.4 | 0.00 | 0.00 | 0.00 | 65 | 1012.5 |
| 20260503150504 | 25 | 128 | 12.9 | 27.4 | 0.00 | 0.00 | 0.00 | 65 | 1012.5 |
| 20260503131003 | 25 | 307 | 0.0 | 3.2 | 0.00 | 0.00 | 0.00 | 66 | 1014.3 |
| 20260503130524 | 25 | 329 | 0.0 | 3.2 | 0.00 | 0.00 | 0.00 | 66 | 1014.4 |
| 20260503081524 | 18 | 0 | 0.0 | 0.0 | 0.00 | 0.00 | 0.00 | 77 | 1017.4 |
| 20260503081003 | 18 | 0 | 0.0 | 0.0 | 0.00 | 0.00 | 0.00 | 77 | 1017.3 |
| 20260503080503 | 18 | 0 | 0.0 | 0.0 | 0.00 | 0.00 | 0.00 | 77 | 1017.2 |